KRAUCHNWS Weather Reports


time (UTC)temp
F
wind
direction
speed
knots
gust
knots
rain 1hr
in
rain 24hr
in
rain mn
in
humidity
%
barometer
mb
20260502163210 76 120 2.6 0.0 0.00 0.00 0.00 32 1015.7
20260502160213 76 54 5.2 0.0 0.00 0.00 0.00 28 1016.1
20260502150210 77 111 4.3 0.0 0.00 0.00 0.00 29 1016.7
20260502130210 75 94 6.1 0.0 0.00 0.00 0.00 27 1018.2
20260502123210 75 178 7.0 0.0 0.00 0.00 0.00 29 1018.5
20260502120210 74 150 3.5 0.0 0.00 0.00 0.00 29 1018.9
20260502113211 74 277 9.6 0.0 0.00 0.00 0.00 29 1019.5
20260502110210 73 88 7.8 0.0 0.00 0.00 0.00 27 1019.9
20260502103210 72 96 7.8 0.0 0.00 0.00 0.00 32 1020.4
20260502100210 69 122 5.2 0.0 0.00 0.00 0.00 39 1020.6
20260502090210 65 244 5.2 0.0 0.00 0.00 0.00 46 1021.2
20260502070213 51 259 1.7 0.0 0.00 0.00 0.00 60 1022.0
20260502063212 46 261 0.9 0.0 0.00 0.00 0.00 71 1022.0
20260502060210 42 243 0.9 0.0 0.00 0.00 0.00 78 1022.0
20260502053210 40 200 0.9 0.0 0.00 0.00 0.00 83 1022.0
20260502050211 38 192 0.0 0.0 0.00 0.00 0.00 85 1021.9
20260502043211 38 147 0.0 0.0 0.00 0.00 0.00 84 1021.9
20260502040212 38 158 0.0 0.0 0.00 0.00 0.00 84 1021.8
20260502033211 39 158 0.0 0.0 0.00 0.00 0.00 81 1021.7
20260502030211 40 198 1.7 0.0 0.00 0.00 0.00 79 1021.8
20260502023214 41 140 1.7 0.0 0.00 0.00 0.00 78 1022.0
20260502020212 43 51 1.7 0.0 0.00 0.00 0.00 73 1021.8
20260502013211 44 169 1.7 0.0 0.00 0.00 0.00 72 1022.0
20260502010211 45 242 2.6 0.0 0.00 0.00 0.00 70 1022.1
20260502003209 47 50 4.3 0.0 0.00 0.00 0.00 66 1022.1
20260502000211 48 9 6.1 0.0 0.00 0.00 0.00 64 1022.5
20260501233210 49 5 2.6 0.0 0.00 0.00 0.00 61 1022.7
20260501230210 49 5 2.6 0.0 0.00 0.00 0.00 60 1022.8
20260501223210 51 11 3.5 0.0 0.00 0.00 0.00 56 1022.9
20260501213210 52 288 0.9 0.0 0.00 0.00 0.00 54 1023.0
20260501210210 55 36 3.5 0.0 0.00 0.00 0.00 49 1022.9
20260501203209 56 46 4.3 0.0 0.00 0.00 0.00 46 1023.0
20260501200211 59 44 4.3 0.0 0.00 0.00 0.00 41 1022.9
20260501193209 60 43 8.7 0.0 0.00 0.00 0.00 39 1022.7
20260501190210 61 40 7.0 0.0 0.00 0.00 0.00 38 1022.5
20260501183210 64 71 5.2 0.0 0.00 0.00 0.00 35 1022.5
20260501180210 67 51 6.1 0.0 0.00 0.00 0.00 31 1022.2
20260501173211 69 57 10.4 0.0 0.00 0.00 0.00 28 1022.1
20260501170210 71 31 8.7 0.0 0.00 0.00 0.00 26 1022.1